EW5649 Weather Reports


time (UTC)temp
C
wind
direction
speed
KPH
gust
KPH
rain 1hr
cm
rain 24hr
cm
rain mn
cm
humidity
%
barometer
mb
20260507041016 12 45 1.6 3.2 0.00 0.00 0.00 92 1020.4
20260507040516 12 0.0 3.2 0.00 0.00 0.00 91 1020.3
20260507040016 12 135 1.6 3.2 0.00 0.00 0.00 92 1020.2
20260507035516 12 270 1.6 1.6 0.00 0.00 0.00 91 1020.2
20260507035016 12 270 1.6 3.2 0.00 0.00 0.00 91 1020.1
20260507034516 12 315 1.6 3.2 0.00 0.00 0.00 91 1020.1
20260507034016 12 45 1.6 1.6 0.00 0.00 0.00 90 1020.1
20260507033516 12 45 1.6 3.2 0.00 0.00 0.00 90 1020.1
20260507033016 12 45 1.6 3.2 0.00 0.00 0.00 90 1020.0
20260507032516 12 45 1.6 3.2 0.00 0.00 0.00 89 1020.0
20260507032016 12 45 1.6 3.2 0.00 0.00 0.00 89 1019.9
20260507031516 13 45 1.6 3.2 0.00 0.00 0.00 89 1019.9
20260507031016 13 45 1.6 3.2 0.00 0.00 0.00 89 1019.9
20260507030556 13 45 1.6 3.2 0.00 0.00 0.00 89 1019.9
20260507030016 13 45 1.6 3.2 0.00 0.00 0.00 89 1019.9
20260507025516 13 45 1.6 3.2 0.00 0.00 0.00 89 1019.9
20260507025016 13 180 1.6 1.6 0.00 0.00 0.00 88 1019.9
20260507024556 13 0.0 1.6 0.00 0.00 0.00 88 1019.8
20260507024016 13 270 1.6 1.6 0.00 0.00 0.00 88 1019.8
20260507023556 13 270 1.6 3.2 0.00 0.00 0.00 88 1019.7
20260507023016 13 270 1.6 3.2 0.00 0.00 0.00 87 1019.7
20260507022515 13 180 1.6 3.2 0.00 0.00 0.00 87 1019.6
20260507022016 13 180 1.6 3.2 0.00 0.00 0.00 87 1019.7
20260507021517 13 180 1.6 3.2 0.00 0.00 0.00 87 1019.7
20260507021056 13 180 1.6 3.2 0.00 0.00 0.00 86 1019.7
20260507020516 13 180 1.6 3.2 0.00 0.00 0.00 86 1019.7
20260507020016 13 180 1.6 3.2 0.00 0.00 0.00 86 1019.7
20260507015516 13 180 1.6 3.2 0.00 0.00 0.00 85 1019.7
20260507015015 13 45 1.6 3.2 0.00 0.00 0.00 86 1019.6
20260507014515 13 135 1.6 3.2 0.00 0.00 0.00 85 1019.6
20260507014015 13 135 1.6 3.2 0.00 0.00 0.00 85 1019.5
20260507013516 13 45 1.6 3.2 0.00 0.00 0.00 85 1019.6
20260507013015 14 45 1.6 3.2 0.00 0.00 0.00 85 1019.5
20260507012516 14 113 1.6 3.2 0.00 0.00 0.00 84 1019.6
20260507012015 14 113 1.6 3.2 0.00 0.00 0.00 85 1019.6
20260507011516 14 113 1.6 3.2 0.00 0.00 0.00 84 1019.6
20260507011015 14 113 1.6 3.2 0.00 0.00 0.00 85 1019.6
20260507010515 14 45 1.6 4.8 0.00 0.00 0.00 84 1019.8
20260507010056 14 45 1.6 3.2 0.00 0.00 0.00 84 1019.8
20260507005515 14 45 1.6 3.2 0.00 0.00 0.00 84 1019.8
20260507005016 14 45 1.6 3.2 0.00 0.00 0.00 83 1019.8
20260507004515 14 45 1.6 3.2 0.00 0.00 0.00 83 1019.8
20260507004016 14 45 1.6 3.2 0.00 0.00 0.00 83 1019.8
20260507003516 14 135 1.6 3.2 0.00 0.00 0.00 85 1019.8
20260507003015 14 180 1.6 3.2 0.00 0.00 0.00 84 1019.7
20260507002516 14 45 1.6 3.2 0.00 0.00 0.00 84 1019.7
20260507002015 14 45 1.6 4.8 0.00 0.00 0.00 83 1019.7
20260507001516 14 45 1.6 4.8 0.00 0.00 0.00 84 1019.6
20260507001015 14 45 1.6 4.8 0.00 0.00 0.00 83 1019.6
20260507000515 14 45 1.6 3.2 0.00 0.00 0.00 84 1019.6
20260507000056 14 45 1.6 3.2 0.00 0.00 0.00 83 1019.7
20260506235556 14 45 1.6 3.2 0.00 0.00 0.00 83 1019.7
20260506235015 15 45 1.6 3.2 0.00 0.00 0.00 83 1019.7
20260506234556 15 45 1.6 3.2 0.00 0.00 0.00 84 1019.7
20260506234015 15 45 1.6 4.8 0.00 0.00 0.00 81 1019.6
20260506233555 15 0.0 3.2 0.00 0.00 0.00 82 1019.6
20260506233055 15 45 1.6 3.2 0.00 0.00 0.00 82 1019.7
20260506232515 15 45 1.6 3.2 0.00 0.00 0.00 82 1019.8
20260506232015 15 45 1.6 3.2 0.00 0.00 0.00 81 1019.9
20260506231556 15 0.0 3.2 0.00 0.00 0.00 82 1019.8
20260506231015 15 0.0 3.2 0.00 0.00 0.00 79 1019.8
20260506230516 15 0.0 3.2 0.00 0.00 0.00 81 1019.8
20260506230015 15 45 1.6 3.2 0.00 0.00 0.00 83 1019.8
20260506225515 15 45 1.6 3.2 0.00 0.00 0.00 82 1019.8
20260506225015 14 113 1.6 3.2 0.00 0.00 0.00 79 1019.8
20260506224515 14 113 1.6 3.2 0.00 0.00 0.00 81 1019.9
20260506224017 14 0.0 3.2 0.00 0.00 0.00 82 1019.9
20260506223517 14 45 1.6 1.6 0.00 0.00 0.00 82 1019.9
20260506223017 14 270 1.6 3.2 0.00 0.00 0.00 82 1019.9
20260506222517 14 135 1.6 3.2 0.00 0.00 0.00 81 1020.0
20260506222017 14 180 1.6 3.2 0.00 0.00 0.00 80 1019.9
20260506221518 15 135 1.6 3.2 0.00 0.00 0.00 81 1019.9
20260506221017 15 45 1.6 3.2 0.00 0.00 0.00 81 1019.9
20260506220517 15 180 1.6 3.2 0.00 0.00 0.00 82 1019.9
20260506220015 15 135 1.6 3.2 0.00 0.00 0.00 80 1020.0
20260506215517 15 45 1.6 3.2 0.00 0.00 0.00 81 1019.9
20260506215017 15 158 1.6 3.2 0.00 0.00 0.00 79 1020.0
20260506214517 15 180 1.6 4.8 0.00 0.00 0.00 78 1020.0
20260506214057 15 45 1.6 3.2 0.00 0.00 0.00 81 1020.0
20260506213517 15 180 1.6 3.2 0.00 0.00 0.00 83 1019.9
20260506213017 15 0.0 3.2 0.00 0.00 0.00 81 1020.0
20260506212517 15 180 1.6 3.2 0.00 0.00 0.00 81 1020.0
20260506212017 14 135 1.6 3.2 0.00 0.00 0.00 85 1020.1
20260506211517 14 113 1.6 3.2 0.00 0.00 0.00 84 1020.0
20260506211017 13 113 1.6 3.2 0.00 0.00 0.00 84 1020.0
20260506210517 13 135 1.6 3.2 0.00 0.00 0.00 82 1020.1
20260506210017 13 315 1.6 3.2 0.00 0.00 0.00 82 1020.1
20260506205517 13 45 1.6 3.2 0.00 0.00 0.00 82 1020.1
20260506205017 13 0.0 3.2 0.00 0.00 0.00 84 1020.1
20260506204517 13 315 1.6 3.2 0.00 0.00 0.00 84 1020.1
20260506204017 13 135 1.6 4.8 0.00 0.00 0.00 82 1020.1
20260506203517 13 135 1.6 3.2 0.00 0.00 0.00 84 1020.0
20260506203017 13 315 1.6 3.2 0.00 0.00 0.00 86 1019.9
20260506202557 13 315 1.6 3.2 0.00 0.00 0.00 86 1019.9
20260506202017 13 45 1.6 6.4 0.00 0.00 0.00 84 1019.8
20260506201557 13 315 1.6 3.2 0.00 0.00 0.00 85 1019.9
20260506201017 13 45 1.6 3.2 0.00 0.00 0.00 85 1019.9
20260506200517 13 45 1.6 3.2 0.00 0.00 0.00 85 1019.8
20260506200057 13 45 1.6 3.2 0.00 0.00 0.00 87 1019.8
20260506195517 13 315 1.6 3.2 0.00 0.00 0.00 87 1019.8
20260506195016 13 180 1.6 3.2 0.00 0.00 0.00 87 1019.7
20260506194557 12 45 1.6 3.2 0.00 0.00 0.00 88 1019.8
20260506194016 12 45 1.6 3.2 0.00 0.00 0.00 88 1019.8
20260506193517 12 270 1.6 4.8 0.00 0.00 0.00 87 1019.8
20260506193016 12 45 1.6 8.0 0.00 0.00 0.00 88 1019.7
20260506192517 12 45 1.6 3.2 0.00 0.00 0.00 89 1019.7
20260506192017 12 45 1.6 3.2 0.00 0.00 0.00 90 1019.7
20260506191517 12 0 1.6 3.2 0.00 0.00 0.00 90 1019.6
20260506191057 12 315 1.6 3.2 0.00 0.00 0.00 89 1019.7
20260506190516 12 315 1.6 4.8 0.00 0.00 0.00 91 1019.7
20260506190018 12 315 1.6 3.2 0.00 0.00 0.00 91 1019.6
20260506185517 12 315 1.6 4.8 0.00 0.00 0.00 91 1019.6
20260506185017 12 315 1.6 3.2 0.00 0.00 0.00 91 1019.6
20260506184516 12 315 1.6 3.2 0.00 0.00 0.00 91 1019.6
20260506184016 12 270 1.6 3.2 0.00 0.00 0.00 91 1019.6
20260506183517 12 315 1.6 3.2 0.00 0.00 0.00 92 1019.6
20260506183016 11 315 1.6 3.2 0.00 0.00 0.00 93 1019.5
20260506182517 11 315 1.6 4.8 0.00 0.00 0.00 92 1019.6
20260506182057 11 315 1.6 4.8 0.00 0.00 0.00 92 1019.5
20260506181556 11 45 1.6 4.8 0.00 0.00 0.00 93 1019.6
20260506181017 11 315 1.6 3.2 0.00 0.00 0.00 94 1019.5
20260506180516 11 315 1.6 3.2 0.00 0.00 0.00 93 1019.5
20260506180057 11 315 1.6 3.2 0.00 0.00 0.00 93 1019.4
20260506175516 11 315 1.6 6.4 0.00 0.00 0.00 93 1019.5
20260506175016 11 45 1.6 3.2 0.00 0.00 0.00 94 1019.5
20260506174517 11 315 1.6 3.2 0.00 0.00 0.00 94 1019.4
20260506174017 11 315 1.6 3.2 0.00 0.00 0.00 94 1019.5
20260506173516 11 45 1.6 4.8 0.00 0.00 0.00 94 1019.4
20260506173017 11 0 1.6 1.6 0.00 0.00 0.00 94 1019.3
20260506172516 11 45 1.6 4.8 0.00 0.00 0.00 95 1019.2
20260506172016 11 315 1.6 1.6 0.00 0.00 0.00 95 1019.1
20260506171556 11 315 1.6 3.2 0.00 0.00 0.00 95 1019.2
20260506171017 11 315 1.6 3.2 0.00 0.00 0.00 95 1019.2
20260506170516 11 315 1.6 3.2 0.00 0.00 0.00 95 1019.3
20260506170016 11 45 1.6 3.2 0.00 0.00 0.00 95 1019.3
20260506165517 11 315 1.6 3.2 0.00 0.00 0.00 95 1019.2
20260506165016 11 315 1.6 4.8 0.00 0.00 0.00 95 1019.3
20260506164516 11 45 1.6 3.2 0.00 0.00 0.00 95 1019.3
20260506164016 11 315 1.6 4.8 0.00 0.00 0.00 95 1019.2
20260506163557 11 45 1.6 8.0 0.00 0.00 0.00 96 1019.2
20260506163056 11 315 1.6 3.2 0.00 0.00 0.00 96 1019.2
20260506162517 11 315 1.6 3.2 0.00 0.00 0.00 96 1019.2
20260506162016 11 315 1.6 3.2 0.00 0.00 0.00 95 1019.2
20260506161517 11 315 1.6 4.8 0.00 0.00 0.00 95 1019.2
20260506161016 11 338 1.6 3.2 0.00 0.00 0.00 95 1019.1
20260506160517 11 315 1.6 3.2 0.00 0.00 0.00 95 1019.0
20260506160016 11 315 1.6 3.2 0.00 0.00 0.00 96 1019.0
20260506155516 11 315 1.6 3.2 0.00 0.00 0.00 96 1018.8
20260506155016 11 315 1.6 4.8 0.00 0.00 0.00 95 1018.8
20260506154517 11 315 1.6 3.2 0.00 0.00 0.00 96 1018.7
20260506154016 11 248 1.6 3.2 0.00 0.00 0.00 96 1018.6
20260506153516 11 45 1.6 3.2 0.00 0.00 0.00 96 1018.6
20260506153016 11 45 1.6 3.2 0.00 0.00 0.00 96 1018.7
20260506152517 11 315 1.6 3.2 0.00 0.00 0.00 96 1018.7
20260506152016 11 315 1.6 3.2 0.00 0.00 0.00 96 1018.7
20260506151516 11 315 1.6 4.8 0.00 0.00 0.00 96 1018.7
20260506151016 11 315 1.6 3.2 0.00 0.00 0.00 96 1018.7
20260506150516 11 0 1.6 4.8 0.00 0.00 0.00 96 1018.8
20260506150016 11 315 1.6 3.2 0.00 0.00 0.00 96 1018.8
20260506145516 11 315 1.6 4.8 0.00 0.00 0.00 96 1018.8
20260506145016 11 315 1.6 3.2 0.00 0.00 0.00 96 1018.8
20260506144556 11 315 1.6 3.2 0.00 0.00 0.00 96 1018.8
20260506144016 11 315 1.6 3.2 0.00 0.00 0.00 96 1018.9
20260506143556 11 45 1.6 3.2 0.00 0.00 0.00 96 1018.8
20260506143016 11 315 1.6 3.2 0.00 0.00 0.00 96 1018.5
20260506142516 11 45 1.6 3.2 0.00 0.00 0.00 96 1018.3
20260506142016 11 315 1.6 3.2 0.00 0.00 0.00 96 1018.5
20260506141557 11 315 1.6 3.2 0.00 0.00 0.00 96 1018.5
20260506141016 11 315 1.6 3.2 0.00 0.00 0.00 96 1018.7
20260506140516 11 45 1.6 3.2 0.00 0.00 0.00 96 1018.6
20260506140016 11 315 1.6 3.2 0.00 0.00 0.00 96 1018.7
20260506135516 11 0.0 3.2 0.00 0.00 0.00 96 1018.6
20260506135016 11 315 1.6 3.2 0.00 0.00 0.00 96 1018.6
20260506134516 11 0 1.6 3.2 0.00 0.00 0.00 96 1018.4
20260506134017 11 45 1.6 3.2 0.00 0.00 0.00 95 1018.4
20260506133517 11 0 1.6 1.6 0.00 0.00 0.00 96 1018.6
20260506133016 11 0 1.6 1.6 0.00 0.00 0.00 95 1018.4
20260506132516 11 45 1.6 1.6 0.00 0.00 0.00 95 1018.4
20260506132016 11 180 1.6 3.2 0.00 0.00 0.00 95 1018.6
20260506131515 11 315 1.6 3.2 0.00 0.00 0.00 95 1018.6
20260506131016 11 45 1.6 1.6 0.00 0.00 0.00 95 1018.4
20260506130515 11 180 1.6 3.2 0.00 0.00 0.00 95 1018.3
20260506130016 11 0 1.6 1.6 0.00 0.00 0.00 95 1018.3
20260506125516 11 45 1.6 3.2 0.00 0.00 0.00 95 1018.3
20260506125056 11 45 1.6 3.2 0.00 0.00 0.00 95 1018.2
20260506124516 11 45 1.6 1.6 0.00 0.00 0.00 94 1018.2
20260506124016 11 0 1.6 3.2 0.00 0.00 0.00 94 1018.2
20260506123515 11 315 1.6 3.2 0.00 0.00 0.00 94 1018.1
20260506123016 11 45 1.6 8.0 0.00 0.00 0.00 94 1018.0
20260506122555 11 315 1.6 3.2 0.00 0.00 0.00 95 1017.9
20260506122016 11 45 1.6 3.2 0.00 0.00 0.00 95 1017.8
20260506121515 11 45 1.6 1.6 0.00 0.00 0.00 95 1018.0
20260506121016 11 0.0 1.6 0.00 0.00 0.00 94 1018.0
20260506120516 11 0.0 1.6 0.00 0.00 0.00 95 1018.0
20260506120015 11 45 1.6 3.2 0.00 0.00 0.00 95 1017.9
20260506115515 11 45 1.6 3.2 0.00 0.00 0.00 95 1017.8
20260506115016 11 0.0 1.6 0.00 0.00 0.00 95 1017.8
20260506114515 11 0.0 1.6 0.00 0.00 0.00 95 1017.7
20260506114016 11 45 1.6 3.2 0.00 0.00 0.00 95 1017.7
20260506113515 11 0.0 1.6 0.00 0.00 0.00 95 1017.7
20260506113016 11 315 1.6 3.2 0.00 0.00 0.00 95 1017.6
20260506112555 11 45 1.6 3.2 0.00 0.00 0.00 95 1017.6
20260506112016 11 45 1.6 3.2 0.00 0.00 0.00 95 1017.6
20260506111515 11 315 1.6 1.6 0.00 0.00 0.00 94 1017.6
20260506111055 11 315 1.6 1.6 0.00 0.00 0.00 94 1017.6
20260506110556 11 315 1.6 3.2 0.00 0.00 0.00 95 1017.5
20260506110016 11 315 1.6 1.6 0.00 0.00 0.00 94 1017.5
20260506105516 11 45 1.6 3.2 0.00 0.00 0.00 95 1017.4
20260506105016 11 0.0 1.6 0.00 0.00 0.00 94 1017.4
20260506104556 11 45 1.6 4.8 0.00 0.00 0.00 95 1017.4
20260506104015 11 315 1.6 4.8 0.00 0.00 0.00 94 1017.4
20260506103515 11 45 1.6 3.2 0.00 0.00 0.00 95 1017.4
20260506103056 11 45 1.6 3.2 0.00 0.00 0.00 95 1017.4
20260506102515 11 45 1.6 3.2 0.00 0.00 0.00 94 1017.4
20260506102016 11 45 1.6 3.2 0.00 0.00 0.00 94 1017.4
20260506101516 11 45 1.6 1.6 0.00 0.00 0.00 95 1017.4
20260506101016 11 45 1.6 3.2 0.00 0.00 0.00 95 1017.4
20260506100515 11 45 1.6 3.2 0.00 0.00 0.00 95 1017.3
20260506100015 11 315 1.6 3.2 0.00 0.00 0.00 95 1017.3
20260506095515 11 45 1.6 3.2 0.00 0.00 0.00 95 1017.2
20260506095015 11 45 1.6 3.2 0.00 0.00 0.00 96 1017.2
20260506094555 11 45 1.6 3.2 0.00 0.00 0.00 96 1017.1
20260506094015 11 45 1.6 3.2 0.00 0.00 0.00 96 1017.1
20260506093515 11 45 1.6 3.2 0.00 0.00 0.00 96 1017.1
20260506093015 11 45 1.6 3.2 0.00 0.00 0.00 95 1017.0
20260506092515 11 45 1.6 3.2 0.00 0.00 0.00 95 1016.9
20260506092015 11 0 1.6 3.2 0.00 0.00 0.00 95 1016.8
20260506091515 11 45 1.6 3.2 0.00 0.00 0.00 95 1016.7
20260506091056 11 0.0 3.2 0.00 0.00 0.00 95 1016.6
20260506090515 11 0.0 1.6 0.00 0.00 0.00 95 1016.7
20260506090017 11 0.0 1.6 0.00 0.00 0.00 95 1016.6
20260506085517 11 0.0 1.6 0.00 0.00 0.00 95 1016.6
20260506085017 11 45 1.6 1.6 0.00 0.00 0.00 95 1016.6
20260506084517 11 45 1.6 3.2 0.00 0.00 0.00 95 1016.6
20260506084057 11 0.0 1.6 0.00 0.00 0.00 95 1016.5
20260506083517 11 45 1.6 1.6 0.00 0.00 0.00 95 1016.5
20260506083017 11 45 1.6 3.2 0.00 0.00 0.00 95 1016.4
20260506082557 11 0.0 1.6 0.00 0.00 0.00 95 1016.4
20260506082015 11 45 1.6 1.6 0.00 0.00 0.00 94 1016.2
20260506081517 12 0.0 1.6 0.00 0.00 0.00 94 1016.2
20260506081017 12 0.0 1.6 0.00 0.00 0.00 94 1016.3
20260506080517 12 0.0 1.6 0.00 0.00 0.00 93 1016.2
20260506073517 12 0.0 1.6 0.00 0.00 0.00 94 1016.1
20260506073018 12 0.0 1.6 0.00 0.00 0.00 93 1016.0
20260506072517 12 0.0 1.6 0.00 0.00 0.00 93 1016.0
20260506072017 12 0.0 1.6 0.00 0.00 0.00 93 1016.1
20260506071517 12 0.0 1.6 0.00 0.00 0.00 93 1016.0
20260506071017 12 0.0 1.6 0.00 0.00 0.00 93 1016.0
20260506070517 12 0.0 1.6 0.00 0.00 0.00 92 1016.0
20260506062016 13 45 1.6 1.6 0.00 0.00 0.00 90 1015.6
20260506061517 13 270 1.6 1.6 0.00 0.00 0.00 90 1015.7
20260506061016 13 45 1.6 1.6 0.00 0.00 0.00 90 1015.7
20260506060516 13 0 1.6 1.6 0.00 0.00 0.00 90 1015.6
20260506051016 15 0.0 1.6 0.00 0.00 0.00 87 1015.1
20260506050517 15 0.0 1.6 0.00 0.00 0.00 87 1015.1
20260506045017 15 0.0 1.6 0.00 0.00 0.00 86 1014.9
20260506044516 15 0.0 1.6 0.00 0.00 0.00 86 1015.0
20260506044016 15 0 1.6 3.2 0.00 0.00 0.00 86 1015.0
20260506043516 15 0.0 1.6 0.00 0.00 0.00 86 1014.8
20260506043016 15 0.0 1.6 0.00 0.00 0.00 86 1014.8
20260506042516 15 0.0 1.6 0.00 0.00 0.00 86 1014.8
20260506042016 15 0.0 1.6 0.00 0.00 0.00 86 1014.7
20260506041517 15 0.0 1.6 0.00 0.00 0.00 85 1014.8